Location: Anglesey
(53.1800°N, 4.2200°W)
Time: 11:08:30
(UTC+01:00)

ISS - Pass Details

Date: 13 October 2017
Orbit: 401 x 408 km, 51.6° (Epoch: 22 October)

Event Time Altitude Azimuth Distance (km) Brightness Sun altitude
Rises 19:02:59 0° 279° (W) 2,326 1.9 -6.4°
Reaches altitude 10° 19:05:13 10° 268° (W) 1,465 0.8 -6.8°
Maximum altitude 19:08:06 29° 207° (SSW) 778 -2.0 -7.2°
Drops below altitude 10° 19:11:00 10° 145° (SE) 1,463 -1.3 -7.6°
Enters shadow 19:12:45 - 135° (SE) 2,134 -0.6 -7.9°
